Date String (YYYY-MM-DD hh:mm:ss) UTC,Instrument flags,absolute air pressure of the measurement (hPa),sample flow rate (lpm),inlet stack bypass flow (lpm),air temperature of the measurement (°C),ambient temperature measured by the external sensor (°C),aerosol sample conditioner tube jacket temperature (°C),OPC LED temperature (°C),internal box temperature (°C),relative humidity of the measurement (%),span deviation,mass concentration of particles derived from Lorenz-Mie calculation of OPC scattering (μg/m³),mass concentration of particles derived from Lorenz-Mie calculation of OPC scattering (μg/m³),mass concentration of particles derived from Lorenz-Mie calculation of OPC scattering (μg/m³)
DateTimeUTC,F1_M11,P_M11,Q1_M11,Q2_M11,T1_M11,T2_M11,T3_M11,T4_M11,T5_M11,U1_M11,ZSPAN_M11,X2_M11,X0_M11,X1_M11
2023-11-17 00:00:00,SystemResetWarning,0825.8,5.01,000.00,027.6,026.3,000.0,036.1,028.9,12.9,0000.0,0000.92,0001.98,0000.66
2023-11-17 00:01:00,SystemResetWarning,0825.8,5.00,000.00,027.6,026.3,000.0,036.1,028.9,12.9,0000.0,0000.88,0001.78,0000.65
2023-11-17 00:02:00,SystemResetWarning,0825.7,4.99,000.00,027.6,026.3,000.0,036.0,028.9,12.9,0000.0,0000.84,0001.64,0000.65
2023-11-17 00:03:00,SystemResetWarning,0825.8,4.99,000.00,027.6,026.3,000.0,036.0,028.9,12.9,0000.0,0000.80,0001.49,0000.65
2023-11-17 00:04:00,SystemResetWarning,0825.8,5.00,000.00,027.6,026.3,000.0,036.0,028.9,13.0,0000.0,0000.78,0001.46,0000.65
2023-11-17 00:05:00,SystemResetWarning,0825.7,5.00,000.00,027.6,026.3,000.0,036.0,028.9,13.1,0000.0,0000.76,0001.44,0000.64
2023-11-17 00:06:00,SystemResetWarning,0825.7,5.01,000.00,027.6,026.3,000.0,036.0,028.9,13.1,0000.0,0000.77,0001.39,0000.65
2023-11-17 00:07:00,SystemResetWarning,0825.7,5.01,000.00,027.5,026.3,000.0,036.0,028.9,13.1,0000.0,0000.76,0001.43,0000.65
2023-11-17 00:08:00,SystemResetWarning,0825.7,5.00,000.00,027.6,026.3,000.0,036.0,028.9,13.2,0000.0,0000.77,0001.41,0000.65
2023-11-17 00:09:00,SystemResetWarning,0825.8,4.99,000.00,027.6,026.3,000.0,036.0,028.9,13.2,0000.0,0000.76,0001.38,0000.65
2023-11-17 00:10:00,SystemResetWarning,0825.7,4.98,000.00,027.6,026.3,000.0,036.0,028.9,13.2,0000.0,0000.74,0001.34,0000.64
2023-11-17 00:11:00,SystemResetWarning,0825.7,5.00,000.00,027.6,026.3,000.0,036.0,028.9,13.3,0000.0,0000.71,0002.91,0000.63
2023-11-17 00:12:00,SystemResetWarning,0825.7,5.00,000.00,027.5,026.2,000.0,036.0,028.9,13.3,0000.0,0000.72,0002.94,0000.63
2023-11-17 00:13:00,SystemResetWarning,0825.7,5.01,000.00,027.5,026.2,000.0,036.0,028.8,13.3,0000.0,0000.74,0003.00,0000.63
2023-11-17 00:14:00,SystemResetWarning,0825.8,5.01,000.00,027.5,026.2,000.0,036.0,028.8,13.4,0000.0,0000.74,0003.00,0000.63
2023-11-17 00:15:00,SystemResetWarning,0825.9,5.00,000.00,027.5,026.2,000.0,036.0,028.8,13.4,0000.0,0000.73,0003.07,0000.62
2023-11-17 00:16:00,SystemResetWarning,0825.8,5.00,000.00,027.5,026.2,000.0,036.0,028.8,13.5,0000.0,0000.71,0003.14,0000.62
2023-11-17 00:17:00,SystemResetWarning,0825.8,5.00,000.00,027.5,026.2,000.0,035.9,028.8,13.5,0000.0,0000.70,0003.33,0000.61
2023-11-17 00:18:00,SystemResetWarning,0825.8,4.99,000.00,027.5,026.2,000.0,035.9,028.8,13.6,0000.0,0000.71,0003.82,0000.62
2023-11-17 00:19:00,SystemResetWarning,0825.8,4.99,000.00,027.5,026.1,000.0,035.9,028.7,13.6,0000.0,0000.71,0003.99,0000.62
2023-11-17 00:20:00,SystemResetWarning,0825.8,5.00,000.00,027.5,026.1,000.0,035.9,028.7,13.7,0000.0,0000.71,0003.99,0000.62
2023-11-17 00:21:00,SystemResetWarning,0825.8,5.00,000.00,027.5,026.1,000.0,035.9,028.7,13.7,0000.0,0000.71,0003.97,0000.62
2023-11-17 00:22:00,SystemResetWarning,0825.8,5.01,000.00,027.4,026.1,000.0,035.9,028.7,13.8,0000.0,0000.73,0002.41,0000.63
2023-11-17 00:23:00,SystemResetWarning,0825.8,5.00,000.00,027.4,026.1,000.0,035.9,028.7,13.8,0000.0,0000.73,0002.41,0000.63
2023-11-17 00:24:00,SystemResetWarning,0825.8,5.01,000.00,027.4,026.1,000.0,035.9,028.7,13.8,0000.0,0000.71,0002.35,0000.63
2023-11-17 00:25:00,SystemResetWarning,0825.9,5.00,000.00,027.4,026.1,000.0,035.9,028.7,13.8,0000.0,0000.73,0002.37,0000.63
2023-11-17 00:26:00,SystemResetWarning,0825.8,4.99,000.00,027.4,026.1,000.0,035.9,028.7,13.7,0000.0,0000.73,0002.29,0000.64
2023-11-17 00:27:00,SystemResetWarning,0825.8,5.00,000.00,027.4,026.1,000.0,035.9,028.7,13.7,0000.0,0000.74,0002.21,0000.64
2023-11-17 00:28:00,SystemResetWarning,0825.9,5.00,000.00,027.4,026.1,000.0,035.9,028.6,13.8,0000.0,0000.77,0002.08,0000.65
2023-11-17 00:29:00,SystemResetWarning,0825.9,5.00,000.00,027.4,026.0,000.0,035.8,028.6,13.8,0000.0,0000.77,0001.17,0000.65
2023-11-17 00:30:00,SystemResetWarning,0825.9,4.99,000.00,027.4,026.0,000.0,035.8,028.6,13.8,0000.0,0000.80,0001.09,0000.66
2023-11-17 00:31:00,SystemResetWarning,0825.9,5.02,000.00,027.3,026.0,000.0,035.8,028.6,13.8,0000.0,0000.83,0001.22,0000.67
2023-11-17 00:32:00,SystemResetWarning,0826.1,5.01,000.00,027.3,026.0,000.0,035.8,028.6,13.8,0000.0,0000.83,0001.27,0000.67
2023-11-17 00:33:00,SystemResetWarning,0826.2,5.00,000.00,027.3,026.0,000.0,035.8,028.6,13.8,0000.0,0000.85,0001.61,0000.69
2023-11-17 00:34:00,SystemResetWarning,0826.2,4.99,000.00,027.3,026.0,000.0,035.8,028.6,13.9,0000.0,0000.89,0001.83,0000.70
2023-11-17 00:35:00,SystemResetWarning,0826.2,4.99,000.00,027.3,026.0,000.0,035.8,028.6,13.9,0000.0,0000.92,0001.93,0000.71
2023-11-17 00:36:00,SystemResetWarning,0826.2,5.00,000.00,027.3,026.0,000.0,035.8,028.6,13.9,0000.0,0000.94,0002.04,0000.71
2023-11-17 00:37:00,SystemResetWarning,0826.2,5.00,000.00,027.3,026.0,000.0,035.8,028.6,13.9,0000.0,0000.98,0002.20,0000.72
2023-11-17 00:38:00,SystemResetWarning,0826.2,5.00,000.00,027.3,026.0,000.0,035.8,028.7,14.0,0000.0,0001.02,0002.46,0000.72
2023-11-17 00:39:00,SystemResetWarning,0826.2,5.00,000.00,027.3,026.0,000.0,035.8,028.6,14.0,0000.0,0001.00,0002.45,0000.73
2023-11-17 00:40:00,SystemResetWarning,0826.2,5.00,000.00,027.3,026.0,000.0,035.8,028.6,13.9,0000.0,0001.01,0002.61,0000.73
2023-11-17 00:41:00,SystemResetWarning,0826.2,5.00,000.00,027.3,026.0,000.0,035.8,028.7,14.0,0000.0,0001.01,0003.84,0000.73
2023-11-17 00:42:00,SystemResetWarning,0826.2,5.00,000.00,027.3,026.0,000.0,035.7,028.7,14.0,0000.0,0001.02,0003.79,0000.74
2023-11-17 00:43:00,SystemResetWarning,0826.2,5.00,000.00,027.3,026.1,000.0,035.7,028.7,13.9,0000.0,0001.03,0003.79,0000.74
2023-11-17 00:44:00,SystemResetWarning,0826.2,4.99,000.00,027.3,026.1,000.0,035.7,028.6,13.9,0000.0,0001.05,0003.58,0000.75
2023-11-17 00:45:00,SystemResetWarning,0826.2,5.00,000.00,027.3,026.1,000.0,035.7,028.6,13.9,0000.0,0001.06,0003.43,0000.75
2023-11-17 00:46:00,SystemResetWarning,0826.3,5.00,000.00,027.3,026.1,000.0,035.7,028.6,13.9,0000.0,0001.04,0003.72,0000.76
2023-11-17 00:47:00,SystemResetWarning,0826.2,5.00,000.00,027.3,026.1,000.0,035.7,028.6,13.9,0000.0,0001.02,0003.64,0000.76
2023-11-17 00:48:00,SystemResetWarning,0826.3,5.00,000.00,027.3,026.1,000.0,035.7,028.6,13.9,0000.0,0001.00,0003.53,0000.77
2023-11-17 00:49:00,SystemResetWarning,0826.2,5.00,000.00,027.3,026.1,000.0,035.7,028.6,14.0,0000.0,0000.96,0003.20,0000.77
2023-11-17 00:50:00,SystemResetWarning,0826.4,5.01,000.00,027.3,026.1,000.0,035.7,028.6,14.1,0000.0,0000.96,0003.15,0000.77
2023-11-17 00:51:00,SystemResetWarning,0826.6,5.00,000.00,027.3,026.0,000.0,035.7,028.6,14.2,0000.0,0000.95,0003.00,0000.77
2023-11-17 00:52:00,SystemResetWarning,0826.7,5.00,000.00,027.3,026.0,000.0,035.7,028.6,14.3,0000.0,0000.93,0001.70,0000.76
2023-11-17 00:53:00,SystemResetWarning,0826.8,5.00,000.00,027.3,026.0,000.0,035.7,028.6,14.4,0000.0,0000.89,0001.63,0000.76
2023-11-17 00:54:00,SystemResetWarning,0826.8,5.00,000.00,027.3,026.0,000.0,035.7,028.6,14.7,0000.0,0000.86,0001.59,0000.75
2023-11-17 00:55:00,SystemResetWarning,0826.8,4.99,000.00,027.2,026.0,000.0,035.7,028.6,14.7,0000.0,0000.82,0001.40,0000.74
2023-11-17 00:56:00,SystemResetWarning,0826.9,5.00,000.00,027.3,026.1,000.0,035.7,028.7,14.7,0000.0,0000.77,0001.32,0000.72
2023-11-17 00:57:00,SystemResetWarning,0826.8,5.00,000.00,027.3,026.1,000.0,035.7,028.7,14.8,0000.0,0000.77,0000.94,0000.72
2023-11-17 00:58:00,SystemResetWarning,0826.9,5.00,000.00,027.3,026.1,000.0,035.7,028.7,14.7,0000.0,0000.78,0000.97,0000.73
2023-11-17 00:59:00,SystemResetWarning,0827.0,5.00,000.00,027.3,026.1,000.0,035.7,028.6,14.9,0000.0,0000.79,0000.98,0000.73
